Regional Weather Roundup
Issued by NWS Grand Forks, ND

Home | Current Version | Previous Version | Text Only | Print | Product List | Glossary On
Versions: 1 2 3 4 5 6 7 8 9 10 11 12 13 14 15 16 17 18 19 20 21 22 23 24 25 26 27 28 29 30 31 32 33 34 35 36 37 38 39 40 41 42 43 44 45 46 47 48 49 50
000
ASUS43 KFGF 252310
RWRFGF
PRAIRIE TO PINES  WEATHER ROUNDUP
NATIONAL WEATHER SERVICE EASTERN NORTH DAKOTA/GRAND FORKS ND
500 PM CST SAT FEB 25 2017

 **SATELLITE DATA USED TO AUGMENT SKY COVER AT AUTOMATED STATIONS**
 *****  WEATHER ACROSS EASTERN NORTH DAKOTA  *****

CITY           SKY/WX    TMP DP  RH WIND       PRES   REMARKS
GRAND FORKS    FAIR      29  15  56 NW13      29.76F WCI  19
GRAND FRKS AFB FAIR      28  17  64 NW10      29.76F WCI  18
DEVILS LAKE    FAIR      21  13  71 W14       29.75S WCI   8
FARGO          CLOUDY    31  22  69 W10       29.78F WCI  22
WAHPETON ARPT  CLOUDY    30  28  93 NW9       29.79F VSB 3/4 WCI  22
$$

 ***** WEATHER ACROSS CENTRAL AND WESTERN NORTH DAKOTA  *****

CITY           SKY/WX    TMP DP  RH WIND       PRES   REMARKS
BISMARCK       PTSUNNY   28  21  75 SW7       29.77F WCI  21
MINOT          LGT SNOW  21  16  81 N10       29.72F VSB 1   WCI  10
JAMESTOWN      CLOUDY    26  19  74 W9        29.75F WCI  17
MINOT AFB      LGT SNOW  18  14  86 N9        29.72F FOG     WCI   6
GARRISON         N/A     24  19  81 S8        29.70F WCI  15
WILLISTON      SNOW      21  19  92 N21       29.68R VSB 1/2 WCI   5
DICKINSON      HVY SNOW  25  21  85 W15       29.66F VSB 1/4 WCI  13
HETTINGER      CLOUDY    31  14  49 W14       29.70F WCI  21
$$

 *****  OTHER AIRPORT OBSERVATIONS IN OUR AREA  *****

CITY           SKY/WX    TMP DP  RH WIND       PRES   REMARKS
WALHALLA       NOT AVBL
GRAFTON AIRPOR FAIR      23  14  68 NW14      29.79S WCI  11
VALLEY CITY AR CLOUDY    27  23  86 NW8       29.78F WCI  18
CANDO          NOT AVBL
CAVALIER APRT    N/A     19  10  68 NW12      29.77S WCI   7
GWINNER        MOCLDY    30  28  93 NW12      29.78F WCI  21
SHEYENNE NWR     N/A     29  23  79 NW6       29.95S WCI  23
ROLLA          CLOUDY    14   9  79 N14       29.72F WCI  -1
 ***** THE ABOVE OBSERVATIONS ARE NON NWS ARE NOT QUALITY
       CONTROLLED AND MAY MIS-REPORT RAIN FOR SNOW...
$$

  *****  WEATHER ACROSS NORTHERN MINNESOTA  *****

CITY           SKY/WX    TMP DP  RH WIND       PRES   REMARKS
FLAG ISLAND    CLOUDY    21  16  79 SW15      29.66F WCI   8
WARROAD        LGT SNOW  21  18  86 W14G20    29.70F WCI   8
ROSEAU         FLURRIES  21  16  79 W9        29.72S WCI  11
HALLOCK        FAIR      19  16  86 N12       29.76S WCI   7
THF RVR FALLS    N/A    N/A N/A N/A MISG        N/A
BAUDETTE       CLOUDY    22  15  75 W16G24    29.69S WCI   8
WASKISH        MOCLDY    23  18  80 W9        29.71F WCI  13
CROOKSTON      CLOUDY    28  21  74 N14       29.77S WCI  17
GREENBUSH NDAW   N/A     21  16  79 W13         N/A  WCI   9
$$
  *****  WEATHER ACROSS CENTRAL AND WEST MINNESOTA  *****

CITY           SKY/WX    TMP DP  RH WIND       PRES   REMARKS
FOSSTON        CLOUDY    28  19  69 W12       29.74F WCI  18
BEMIDJI        FLURRIES  28  21  76 W12       29.72F WCI  17
PARK RAPIDS    CLOUDY    29  19  66 W13       29.74S WCI  19
ELBOW LAKE     LGT SNOW  29  28  97 W3        29.78F
WADENA         LGT SNOW  27  25  93 SW8       29.76F WCI  18
DETROIT LAKES  MOCLDY    30  25  80 W7        29.76F WCI  23
MOORHEAD       DRIZZLE   28  25  86 NW7       29.79F WCI  21
FERGUS FALLS   LGT SNOW  28  28 100 NW8       29.82F VSB 1   WCI  20
MORRIS MN      FAIR      34  21  60 SW8       29.78F
STAPLES        LGT SNOW  27  25  93 SW5       29.77F WCI  21
$$
  *****  WEATHER ELSEWHERE ACROSS MINNESOTA  *****

CITY           SKY/WX    TMP DP  RH WIND       PRES   REMARKS
DULUTH         FAIR      26  15  63 W16       29.75S WCI  14
INTRNTL FALLS  FLURRIES  21  15  78 SW6       29.70F WCI  13
ELY            CLOUDY    21  10  63 W9G16     29.71F WCI  11
CLOQUET        CLOUDY    27  14  59 W8        29.76F WCI  18
WHEATON        CLOUDY    36  21  55 S6        29.79F
BRAINERD       LGT SNOW  28  22  78 SW14      29.78F WCI  17
HIBBING        CLOUDY    24  13  62 VRB7      29.72F WCI  16
ALEXANDRIA     CLOUDY    32  20  61 SW12      29.78F WCI  23
SAINT CLOUD    CLOUDY    31  20  63 SW13      29.82F WCI  21
MINNEAPOLIS    CLOUDY    32  17  54 W9        29.89S WCI  24
$$

  *****  WEATHER ACROSS SOUTH DAKOTA  *****

CITY           SKY/WX    TMP DP  RH WIND       PRES   REMARKS
SIOUX FALLS    PTSUNNY   27  17  66 S14       29.88F WCI  16
BROOKINGS      FAIR      31  21  66 S16       29.81F WCI  20
WATERTOWN      FAIR      32  20  61 SW14      29.77F WCI  22
HURON          CLOUDY    39  19  44 W9        29.79F
SISSETON         N/A     38  19  46 W17       29.75F
ABERDEEN       CLOUDY    37  17  44 W8        29.76F
MITCHELL       PTSUNNY   31  22  69 S13       29.85F WCI  21
PIERRE         CLOUDY    34  25  69 N12       29.78F
MOBRIDGE       FAIR      33  21  61 N8        29.75F
RAPID CITY     PTSUNNY   31  19  61 SE3       29.73F
$$

  *****  SOME WEATHER IN NEARBY STATES *****

CITY           SKY/WX    TMP DP  RH WIND       PRES   REMARKS
GLASGOW MT     FAIR      28  21  75 NW13      29.68S WCI  17
GREAT FALLS MT FAIR      32   4  30 W23G31    29.65F WCI  19
CHEYENNE WY    FAIR      23   7  50 W28G38    29.75F WCI   6
SCOTTSBLUFF NE FAIR      26  12  55 W8        29.81F WCI  18
OMAHA NE       FAIR      34  15  46 S14       30.00F WCI  25
DES MOINES IA  PTSUNNY   32  18  56 SW9       30.03F WCI  24
DAVENPORT IA   FAIR      29  18  63 NW17      30.02S WCI  17
CHICAGO IL     CLOUDY    27  14  58 W16       29.95R WCI  15
EAU CLAIRE WI  FAIR      26   9  48 SW8       29.88S WCI  18
LA CROSSE WI   FAIR      28  10  46 W9        29.96S WCI  19
$$

  *****  SOME NATIONAL WEATHER *****

CITY           SKY/WX    TMP DP  RH WIND       PRES   REMARKS
LA GUARDIA NY  CLOUDY    57  53  86 S16       29.49R FOG
RALEIGH NC     FAIR      74  49  41 SW20G25   29.58R
ATLANTA GA     FAIR      58  11  15 NW17      29.94R
NEW ORLEANS LA FAIR      68  31  25 NW7       30.05S
OKLAHOMA CITY  FAIR      48  14  25 S12       30.07F
ALBUQUERQUE NM PTSUNNY   54  -4   9 W21G28    29.86F
SALT LAKE CITY PTSUNNY   31  22  69 NE12      30.02S WCI  22
LOS ANGELES CA PTSUNNY   56  47  71 W10       30.04F
BOISE ID       FAIR      39  16  39 MISG      30.05F
SEATTLE WA     CLOUDY    43  31  62 SW7       30.13F
$$

*** WEATHER ACROSS MANITOBA...SASKATCHEWAN AND ONTARIO ***
                ***ONTARIO***

CITY           SKY/WX    TMP DP  RH WIND       PRES   REMARKS
GERALDTON      PTCLDY    14  -8  37 W6        29.55R WCI   5
THUNDER BAY    NOT AVBL
SIOUX LOOKOUT  PTCLDY    18   1  49 NW9       29.65S WCI   6
TORONTO        CLOUDY    34  21  60 W25G36    29.59R WCI  21
BIG TROUT LK   PTCLDY     9  -6  52 NW7       29.60S WCI  -3
PICKLE LAKE    PTCLDY    10  -2  56 NW7       29.59S WCI   0
DRYDEN         CLOUDY    18   9  68 W10       29.64F WCI   6
KENORA         LGT SNOW  18  14  86 S6        29.63F WCI   9
$$
                *** MANITOBA***

CITY           SKY/WX    TMP DP  RH WIND       PRES   REMARKS
BRANDON        PTSUNNY   12   1  62 NW9       29.76F WCI   0
DAUPHIN        CLOUDY    12   3  67 W18G25    29.75S WCI  -5
ISLAND LAKE    NOT AVBL
PILOT MOUND      N/A     12   3  67 NW12        N/A  WCI  -2
THE PAS        MOCLDY     7  -4  61 NW12      29.73S WCI  -9
THOMPSON       FLURRIES   1  -8  66 NW7       29.69S WCI -11
WINNIPEG       CLOUDY    14   7  73 NW15      29.77S WCI  -1
LYNN LAKE      FLURRIES   0  -8  71 NW6       29.67S WCI -12
CHURCHILL      CRYSTALS -11 -15  84 NW6       29.73F WCI -25
GILLAM         MOCLDY     3  -6  66 W5        29.68S WCI  -6
$$
                ***SASKATCHEWAN***

CITY           SKY/WX    TMP DP  RH WIND       PRES   REMARKS
ESTEVAN        LGT SNOW  16  10  79 N5        29.72F FOG     WCI   9
KINDERSLEY     PTSUNNY   21  14  73 SW8       29.64F WCI  12
LLOYDMINSTER   PTSUNNY   19  12  73 SW7       29.59F WCI  10
PRINCE ALBERT  PTSUNNY   16   1  53 W7        29.68F WCI   6
REGINA         PTSUNNY   16   9  73 NW8       29.72F WCI   5
YORKTON        MOSUNNY   10   1  67 W10       29.73S WCI  -3
N. BATTLEFORD  FLURRIES  19  10  68 SW10      29.67F WCI   8
LA RONGE       PTSUNNY   12   1  62 S5        29.64F WCI   4
SASKATOON      MOSUNNY   16   7  67 SW6       29.71F WCI   7
SWIFT CURRENT  CLOUDY    16  10  79 S5        29.64F WCI   9
$$
NOTE: THESE ARE AUTOMATED STATIONS WITH LIMITED QUALITY CONTROL
      "FAIR" INDICATES FEW OR NO CLOUDS BELOW 12,000 FEET WITH NO
      SIGNIFICANT WEATHER AND/OR OBSTRUCTIONS TO VISIBILITY.
      SKY/WX - SKY CONDITION AND SIGNIFICANT WEATHER.
      TMP - AIR TEMPERATURE.    DP   - DEWPOINT TEMPERATURE.
      RH  - RELATIVE HUMIDITY.  PRES - PRESSURE.
      HX  - HEAT INDEX.         WCI  - WIND CHILL INDEX.
$




USA.gov is the U.S. government's official web portal to all federal, state and local government web resources and services.